Regional Weather Roundup
Issued by NWS

Home | Current Version | Previous Version | Text Only | Print | Product List | Glossary On
Versions: 1 2 3 4 5 6 7 8 9 10 11 12 13 14 15 16 17 18 19 20 21 22 23 24 25 26 27 28 29 30 31 32 33 34 35 36 37 38 39 40 41 42 43 44 45 46 47 48 49 50
000
ASUS43 KDTX 291610
RWRMI
MICHIGAN HOURLY REGIONAL WEATHER ROUNDUP
NATIONAL WEATHER SERVICE DETROIT/PONTIAC MI
1200 PM EDT FRI JUL 29 2016

NOTE: "FAIR" INDICATES FEW OR NO CLOUDS BELOW 12,000 FEET WITH NO
SIGNIFICANT WEATHER AND/OR OBSTRUCTION TO VISIBILITY.

MIZ047>049-052>055-059>063-066>070-074>076-081>083-291700-
SOUTHEAST LOWER MICHIGAN

CITY           SKY/WX    TMP DP  RH WIND       PRES   REMARKS
ADRIAN         MOSUNNY   81  67  62 E7        29.97R
ALMA           CLOUDY    73  65  76 NE12      30.02R
ANN ARBOR      MOSUNNY   81  66  60 NE7       29.96S
BAD AXE        CLOUDY    72  59  65 NE9       30.03S
CARO           CLOUDY    71  59  64 E5        30.01R
DETROIT CITY   MOSUNNY   81  67  62 VRB5      29.96S
DETROIT        CLOUDY    83  64  52 CALM      29.96R
FLINT          CLOUDY    81  62  52 NE12      29.99S
GROSSE ILE     SUNNY     82  65  56 NE3       29.95R
HILLSDALE      LGT RAIN  73  67  81 NW7       29.99R
HOWELL         CLOUDY    79  63  57 NE7       29.98S

CITY           SKY/WX    TMP DP  RH WIND       PRES   REMARKS
JACKSON        CLOUDY    76  67  73 CALM      29.99R
LAMBERTVILLE   SUNNY     82  66  57 CALM      29.96R
LANSING        CLOUDY    76  64  66 E7        30.01R
LAPEER         CLOUDY    74  63  67 NE9       30.00S
MASON          CLOUDY    75  64  67 NE5       29.99R
MONROE         SUNNY     81  68  65 NW3       29.94S
MT. CLEMENS    MOSUNNY   79  67  65 E10       29.95S
PONTIAC        PTSUNNY   78  64  61 N10       29.98R
PORT HOPE        N/A     71  61  70 NE17      30.02R
PORT HURON     CLOUDY    73  64  73 N8        29.99R
TRI CITIES     PTSUNNY   74  64  71 NE13      30.02R
MIDLAND        CLOUDY    72  62  70 NE13      30.02R
TROY           MOSUNNY   80  64  57 NE7       29.99S
SAGINAW HB     CLOUDY    73  61  64 E9        30.01R
$$
MIZ043>046-050>051-056>058-064>065-071>073-077>080-291700-
SOUTHWEST LOWER MICHIGAN

CITY           SKY/WX    TMP DP  RH WIND       PRES   REMARKS
BATTLE CREEK   LGT RAIN  67  67 100 N3        30.01R
BENTON HARBOR  MOSUNNY   78  65  63 E12       29.96R
BIG RAPIDS     CLOUDY    72  66  83 E7        30.03R
COLDWATER      LGT RAIN  68  67  98 N8        29.99S
FREMONT        FAIR      72  67  83 E7        30.01S
HOLLAND        CLOUDY    74  64  71 E12       29.99R
GRAND RAPIDS   CLOUDY    74  62  66 NE8       30.01R
IONIA          CLOUDY    71  60  68 NE9       30.00R
KALAMAZOO      LGT RAIN  70  66  87 NE5       30.00R
LUDINGTON      CLOUDY    71  66  82 NE3       30.01S
MARSHALL       RAIN      69  67  96 CALM      29.99R
MOUNT PLEASANT CLOUDY    74  64  69 NE10G16   30.02R
MUSKEGON       PTSUNNY   70  65  84 E9        30.00R
SOUTH HAVEN    PTSUNNY   76  67  71 SE9       29.97S
$$
MIZ016>042-291700-
NORTHERN LOWER MICHIGAN

CITY           SKY/WX    TMP DP  RH WIND       PRES   REMARKS
ALPENA         MOSUNNY   74  54  49 E8        30.07S
BEAVER ISLAND  SUNNY     72  60  65 NE8       30.08S
BELLAIRE       SUNNY     78  52  41 NE7       30.05R
CADILLAC       CLOUDY    67  61  78 E8        30.05S
CHARLEVOIX     SUNNY     75  55  48 E8        30.08S
FRANKFORT      CLOUDY    74  61  63 E6        30.04R
GAYLORD        SUNNY     74  52  46 NE9       30.07S
GRAYLING       MOSUNNY   79  55  43 E8G16     30.06S
HARBOR SPRINGS SUNNY     74  58  55 E6        30.06S
HOUGHTON LAKE  CLOUDY    73  58  59 E10       30.06S
MANISTEE       MOSUNNY   73  62  68 E9        30.02R
OSCODA         CLOUDY    71  58  65 NE13      30.05S
PELLSTON       MOSUNNY   75  58  55 E12       30.07S
ROGERS CITY    SUNNY     69  57  65 NE9       30.09S
TRAVERSE CITY  MOSUNNY   75  58  55 N8        30.03R
$$
MIZ007>008-015-291700-
EASTERN UPPER MICHIGAN

CITY           SKY/WX    TMP DP  RH WIND       PRES   REMARKS
KINROSS        MOSUNNY   72  53  51 NE9       30.10S
MACKINAC ISLAN SUNNY     68  58  68 E6        30.09S
NEWBERRY       SUNNY     72  52  49 E5        30.10S
S. S. MARIE    SUNNY     72  52  49 CALM      30.09S
MUNISING         N/A     71  61  70 NE15      30.08F
$$
MIZ004>006-011>014-085-291700-
CENTRAL UPPER MICHIGAN

CITY           SKY/WX    TMP DP  RH WIND       PRES   REMARKS
MANISTIQUE     SUNNY     73  58  60 SE8       30.08S
ESCANABA       SUNNY     73  57  56 E13       30.06S
MENOMINEE      MOSUNNY  N/A N/A N/A E9        30.06S
SAWYER-GWINN   MOSUNNY   70  57  64 E7        30.10S
$$
MIZ001>003-009>011-084-291700-
WESTERN UPPER MICHIGAN

CITY           SKY/WX    TMP DP  RH WIND       PRES   REMARKS
IRON MOUNTAIN  MOSUNNY   73  58  59 NE7       30.07S
HOUGHTON       SUNNY     72  55  55 VRB6      30.11S
COPPER HARBOR    N/A     69  56  62 E6        30.11R
IRONWOOD       SUNNY     68  55  64 N10       30.08F
$$

ABBREVIATIONS USED IN REMARKS
   TC - TEMPERATURE IN CELSIUS
  WCI - WIND CHILL INDEX
   HX - HEAT INDEX
  VSB - VISIBILITY




USA.gov is the U.S. government's official web portal to all federal, state and local government web resources and services.